UZB764 UAAA-UZTT

Flight info

Callsign UZB764
Flight time 1h 11m
Altitude 34000
Route N0450F340 EKLAT Z370 AGLEK Z817 KIZMI Z580 ANESA N143 FODIK P178 DOSOR
Aircraft A320/M-VGDW/C

Departure

Time 2026-04-27 16:52
Airport Almaty International Airport (UAAA)

Arrival

Time 2026-04-27 18:04
Airport Tashkent International Airport (UZTT)
Time Latitude Longitude Altitude Speed Heading
2026-04-27 16:38 43.34876 77.01359 2229 ft 0 kts 246°
2026-04-27 16:46 43.34880 77.01370 2228 ft 3 kts 246°
2026-04-27 16:46 43.34888 77.01396 2223 ft 3 kts 246°
2026-04-27 16:46 43.34896 77.01421 2223 ft 3 kts 246°
2026-04-27 16:47 43.34905 77.01445 2224 ft 3 kts 231°
2026-04-27 16:47 43.34918 77.01462 2224 ft 3 kts 198°
2026-04-27 16:47 43.34934 77.01464 2224 ft 2 kts 159°
2026-04-27 16:47 43.34938 77.01463 2224 ft 0 kts 156°
2026-04-27 16:49 43.34906 77.01482 2226 ft 13 kts 156°
2026-04-27 16:50 43.34802 77.01490 2227 ft 16 kts 198°
2026-04-27 16:50 43.34690 77.01443 2227 ft 17 kts 181°
2026-04-27 16:50 43.34568 77.01475 2226 ft 18 kts 161°
2026-04-27 16:50 43.34448 77.01549 2229 ft 20 kts 155°
2026-04-27 16:51 43.34321 77.01629 2227 ft 21 kts 155°
2026-04-27 16:51 43.34195 77.01710 2227 ft 18 kts 153°
2026-04-27 16:51 43.34175 77.01848 2225 ft 13 kts 59°
2026-04-27 16:51 43.34236 77.01970 2226 ft 22 kts 56°
2026-04-27 16:52 43.34463 77.02426 2230 ft 92 kts 56°
2026-04-27 16:52 43.34939 77.03392 2227 ft 149 kts 55°
2026-04-27 16:52 43.35607 77.04723 2404 ft 177 kts 55°
2026-04-27 16:52 43.36298 77.06101 3159 ft 175 kts 54°
2026-04-27 16:53 43.37021 77.07484 3687 ft 186 kts 46°
2026-04-27 16:53 43.38193 77.08378 3935 ft 208 kts
2026-04-27 16:53 43.39678 77.08132 4224 ft 234 kts 336°
2026-04-27 16:53 43.41008 77.06661 4612 ft 262 kts 308°
2026-04-27 16:54 43.41769 77.04272 5020 ft 289 kts 281°
2026-04-27 16:54 43.41974 77.01401 5386 ft 314 kts 275°
2026-04-27 16:54 43.42132 76.98317 5909 ft 329 kts 274°
2026-04-27 16:54 43.42277 76.95154 6724 ft 334 kts 273°
2026-04-27 16:55 43.42423 76.91953 7528 ft 337 kts 273°
2026-04-27 16:55 43.42574 76.88711 8329 ft 341 kts 273°
2026-04-27 16:55 43.42729 76.85478 9096 ft 346 kts 273°
2026-04-27 16:55 43.42892 76.82154 9872 ft 351 kts 274°
2026-04-27 16:56 43.43060 76.78809 10678 ft 352 kts 274°
2026-04-27 16:56 43.43232 76.75445 11466 ft 354 kts 274°
2026-04-27 16:56 43.43405 76.72056 12240 ft 356 kts 273°
2026-04-27 16:56 43.43574 76.68647 13005 ft 358 kts 273°
2026-04-27 16:57 43.43742 76.65217 13753 ft 361 kts 273°
2026-04-27 16:57 43.43910 76.61761 14427 ft 363 kts 273°
2026-04-27 16:57 43.44076 76.58333 15088 ft 365 kts 272°
2026-04-27 16:57 43.44244 76.54837 15735 ft 367 kts 272°
2026-04-27 16:58 43.44411 76.51324 16400 ft 369 kts 272°
2026-04-27 16:58 43.44578 76.47785 17063 ft 372 kts 272°
2026-04-27 16:58 43.44744 76.44225 17710 ft 374 kts 272°
2026-04-27 16:58 43.44908 76.40642 18364 ft 377 kts 272°
2026-04-27 16:59 43.45073 76.37034 18910 ft 379 kts 272°
2026-04-27 16:59 43.45241 76.33402 19451 ft 382 kts 272°
2026-04-27 16:59 43.45410 76.29742 20003 ft 385 kts 271°
2026-04-27 16:59 43.45574 76.26103 20544 ft 387 kts 271°
2026-04-27 17:00 43.45851 76.19866 21434 ft 392 kts 271°
2026-04-27 17:00 43.46073 76.14887 22109 ft 396 kts 271°
2026-04-27 17:00 43.46242 76.11093 22589 ft 399 kts 271°
2026-04-27 17:01 43.46410 76.07270 23067 ft 402 kts 271°
2026-04-27 17:01 43.46576 76.03420 23537 ft 404 kts 271°
2026-04-27 17:01 43.46742 75.99544 23943 ft 407 kts 271°
2026-04-27 17:01 43.46907 75.95648 24335 ft 409 kts 271°
2026-04-27 17:02 43.47069 75.91786 24714 ft 410 kts 271°
2026-04-27 17:02 43.47234 75.87853 25093 ft 412 kts 271°
2026-04-27 17:02 43.47396 75.83907 25465 ft 414 kts 271°
2026-04-27 17:02 43.47558 75.79946 25836 ft 415 kts 271°
2026-04-27 17:03 43.47724 75.75966 26189 ft 418 kts 271°
2026-04-27 17:03 43.47889 75.71963 26533 ft 420 kts 271°
2026-04-27 17:03 43.48054 75.67947 26874 ft 421 kts 271°
2026-04-27 17:03 43.48219 75.63911 27218 ft 423 kts 271°
2026-04-27 17:04 43.48383 75.59859 27552 ft 425 kts 271°
2026-04-27 17:04 43.48543 75.55846 27870 ft 426 kts 271°
2026-04-27 17:04 43.48702 75.51761 28182 ft 428 kts 271°
2026-04-27 17:04 43.48858 75.47658 28486 ft 430 kts 271°
2026-04-27 17:05 43.49013 75.43542 28804 ft 431 kts 270°
2026-04-27 17:05 43.49166 75.39414 29094 ft 432 kts 271°
2026-04-27 17:05 43.49318 75.35272 29355 ft 434 kts 271°
2026-04-27 17:05 43.49469 75.31109 29613 ft 436 kts 270°
2026-04-27 17:06 43.49620 75.26936 29867 ft 437 kts 271°
2026-04-27 17:06 43.49770 75.22804 30138 ft 438 kts 271°
2026-04-27 17:06 43.49924 75.18627 30450 ft 436 kts 271°
2026-04-27 17:06 43.50075 75.14461 30766 ft 434 kts 270°
2026-04-27 17:07 43.50221 75.10318 31091 ft 432 kts 270°
2026-04-27 17:07 43.50364 75.06184 31418 ft 431 kts 270°
2026-04-27 17:07 43.50504 75.02077 31732 ft 429 kts 270°
2026-04-27 17:07 43.50644 74.97983 32052 ft 427 kts 270°
2026-04-27 17:08 43.50784 74.93903 32379 ft 425 kts 270°
2026-04-27 17:08 43.50919 74.89898 32703 ft 423 kts 270°
2026-04-27 17:08 43.51050 74.85856 33026 ft 422 kts 270°
2026-04-27 17:08 43.51161 74.81832 33350 ft 419 kts 268°
2026-04-27 17:09 43.50921 74.77857 33664 ft 415 kts 259°
2026-04-27 17:09 43.50287 74.73985 33979 ft 414 kts 256°
2026-04-27 17:09 43.49617 74.70137 34075 ft 413 kts 256°
2026-04-27 17:10 43.48293 74.62453 34073 ft 412 kts 256°
2026-04-27 17:10 43.46978 74.54833 34076 ft 412 kts 256°
2026-04-27 17:11 43.45641 74.47172 34067 ft 412 kts 256°
2026-04-27 17:11 43.43624 74.35694 34068 ft 411 kts 256°
2026-04-27 17:12 43.41596 74.24226 34058 ft 411 kts 256°
2026-04-27 17:13 43.40258 74.16624 34050 ft 412 kts 256°
2026-04-27 17:13 43.38901 74.08981 34049 ft 412 kts 256°
2026-04-27 17:14 43.37535 74.01330 34052 ft 412 kts 256°
2026-04-27 17:14 43.36172 73.93681 34056 ft 412 kts 255°
2026-04-27 17:15 43.34812 73.86097 34051 ft 412 kts 255°
2026-04-27 17:15 43.33431 73.78465 34052 ft 412 kts 255°
2026-04-27 17:16 43.32047 73.70840 34051 ft 411 kts 255°
2026-04-27 17:16 43.30665 73.63230 34054 ft 411 kts 255°
2026-04-27 17:17 43.29276 73.55616 34051 ft 411 kts 255°
2026-04-27 17:17 43.27886 73.48061 34048 ft 411 kts 255°
2026-04-27 17:18 43.25781 73.36667 34041 ft 411 kts 255°
2026-04-27 17:18 43.24375 73.29058 34043 ft 411 kts 254°
2026-04-27 17:19 43.22970 73.21512 34045 ft 411 kts 254°
2026-04-27 17:19 43.21549 73.13914 34043 ft 412 kts 254°
2026-04-27 17:20 43.20126 73.06311 34045 ft 412 kts 254°
2026-04-27 17:20 43.18695 72.98713 34044 ft 412 kts 254°
2026-04-27 17:21 43.17243 72.91106 34052 ft 412 kts 254°
2026-04-27 17:21 43.15800 72.83561 34048 ft 412 kts 254°
2026-04-27 17:22 43.14347 72.75957 34050 ft 413 kts 254°
2026-04-27 17:22 43.12880 72.68350 34051 ft 413 kts 254°
2026-04-27 17:23 43.11407 72.60740 34055 ft 414 kts 254°
2026-04-27 17:23 43.09945 72.53171 34049 ft 415 kts 255°
2026-04-27 17:24 43.08462 72.45545 34045 ft 415 kts 254°
2026-04-27 17:24 43.06969 72.37916 34046 ft 415 kts 254°
2026-04-27 17:25 43.05469 72.30287 34047 ft 415 kts 254°
2026-04-27 17:25 43.03977 72.22709 34053 ft 415 kts 255°
2026-04-27 17:26 43.02474 72.15087 34043 ft 415 kts 255°
2026-04-27 17:26 43.00963 72.07465 34038 ft 416 kts 254°
2026-04-27 17:27 42.99441 71.99840 34040 ft 416 kts 254°
2026-04-27 17:27 42.97916 71.92209 34036 ft 416 kts 254°
2026-04-27 17:28 42.96397 71.84635 34034 ft 416 kts 254°
2026-04-27 17:29 42.94361 71.73109 34037 ft 417 kts 257°
2026-04-27 17:29 42.93173 71.65367 34032 ft 417 kts 257°
2026-04-27 17:30 42.91954 71.57681 34034 ft 417 kts 257°
2026-04-27 17:30 42.90043 71.46101 34035 ft 417 kts 257°
2026-04-27 17:31 42.88760 71.38389 34049 ft 417 kts 257°
2026-04-27 17:31 42.87478 71.30682 34047 ft 417 kts 257°
2026-04-27 17:32 42.84495 71.19613 34024 ft 418 kts 248°
2026-04-27 17:33 42.82288 71.12287 34025 ft 418 kts 248°
2026-04-27 17:33 42.80077 71.04958 34032 ft 418 kts 248°
2026-04-27 17:34 42.77861 70.97631 34039 ft 418 kts 248°
2026-04-27 17:34 42.75654 70.90355 34046 ft 419 kts 248°
2026-04-27 17:35 42.73424 70.83028 34046 ft 419 kts 248°
2026-04-27 17:35 42.71186 70.75708 34041 ft 419 kts 248°
2026-04-27 17:36 42.68946 70.68381 34044 ft 420 kts 248°
2026-04-27 17:36 42.66714 70.61116 34043 ft 419 kts 248°
2026-04-27 17:37 42.64618 70.53734 34031 ft 419 kts 250°
2026-04-27 17:37 42.62643 70.46271 34016 ft 420 kts 250°
2026-04-27 17:38 42.60649 70.38821 34014 ft 420 kts 250°
2026-04-27 17:38 42.58605 70.31400 34004 ft 420 kts 250°
2026-04-27 17:39 42.56553 70.24026 34003 ft 421 kts 250°
2026-04-27 17:39 42.54483 70.16602 33988 ft 421 kts 250°
2026-04-27 17:40 42.52416 70.09175 33992 ft 421 kts 250°
2026-04-27 17:40 42.50472 70.01689 33974 ft 421 kts 252°
2026-04-27 17:41 42.48785 69.94151 33972 ft 421 kts 254°
2026-04-27 17:41 42.47113 69.86539 33958 ft 422 kts 253°
2026-04-27 17:42 42.45378 69.78949 33949 ft 422 kts 253°
2026-04-27 17:42 42.43606 69.71369 33943 ft 422 kts 253°
2026-04-27 17:43 42.41837 69.63840 33940 ft 423 kts 253°
2026-04-27 17:43 42.40055 69.56256 33942 ft 423 kts 252°
2026-04-27 17:44 42.37952 69.48848 33937 ft 424 kts 240°
2026-04-27 17:44 42.36197 69.45647 33811 ft 425 kts 229°
2026-04-27 17:44 42.33964 69.43001 32996 ft 430 kts 216°
2026-04-27 17:44 42.31308 69.41121 32221 ft 436 kts 204°
2026-04-27 17:45 42.28484 69.39716 31469 ft 440 kts 203°
2026-04-27 17:45 42.25602 69.38266 30724 ft 444 kts 203°
2026-04-27 17:45 42.22701 69.36783 30000 ft 447 kts 203°
2026-04-27 17:45 42.19790 69.35283 29156 ft 448 kts 203°
2026-04-27 17:46 42.16888 69.33792 28349 ft 445 kts 203°
2026-04-27 17:46 42.14001 69.32315 27560 ft 442 kts 203°
2026-04-27 17:46 42.11132 69.30851 26793 ft 440 kts 202°
2026-04-27 17:46 42.08285 69.29398 26045 ft 437 kts 202°
2026-04-27 17:47 42.05446 69.27953 25317 ft 435 kts 202°
2026-04-27 17:47 42.03610 69.26886 24842 ft 432 kts 209°
2026-04-27 17:47 42.00110 69.24358 23915 ft 429 kts 210°
2026-04-27 17:47 41.97485 69.22454 23178 ft 428 kts 210°
2026-04-27 17:48 41.94851 69.20611 22374 ft 427 kts 205°
2026-04-27 17:48 41.92087 69.19155 21594 ft 426 kts 202°
2026-04-27 17:48 41.89320 69.17737 20836 ft 425 kts 201°
2026-04-27 17:48 41.86559 69.16326 20097 ft 424 kts 201°
2026-04-27 17:49 41.83807 69.14918 19378 ft 423 kts 201°
2026-04-27 17:49 41.81062 69.13510 18671 ft 421 kts 201°
2026-04-27 17:49 41.78336 69.12112 17944 ft 420 kts 201°
2026-04-27 17:49 41.75647 69.10734 17166 ft 419 kts 201°
2026-04-27 17:50 41.72943 69.09349 16387 ft 410 kts 201°
2026-04-27 17:50 41.67817 69.06726 14910 ft 379 kts 201°
2026-04-27 17:50 41.65394 69.05492 14210 ft 367 kts 201°
2026-04-27 17:51 41.63042 69.04293 13481 ft 357 kts 200°
2026-04-27 17:51 41.60754 69.03128 12725 ft 347 kts 200°
2026-04-27 17:51 41.58541 69.02002 12203 ft 333 kts 200°
2026-04-27 17:51 41.56422 69.00922 11706 ft 320 kts 200°
2026-04-27 17:52 41.54447 68.99733 11220 ft 317 kts 213°
2026-04-27 17:52 41.52867 68.97676 10736 ft 320 kts 236°
2026-04-27 17:52 41.52015 68.94953 10262 ft 320 kts 257°
2026-04-27 17:52 41.51702 68.93027 9952 ft 321 kts 258°
2026-04-27 17:53 41.51073 68.89125 9277 ft 321 kts 258°
2026-04-27 17:53 41.50526 68.86243 8770 ft 321 kts 249°
2026-04-27 17:53 41.49475 68.83630 8336 ft 318 kts 238°
2026-04-27 17:53 41.48320 68.81143 7968 ft 313 kts 238°
2026-04-27 17:54 41.47203 68.78730 7601 ft 309 kts 238°
2026-04-27 17:54 41.46090 68.76311 7245 ft 304 kts 238°
2026-04-27 17:54 41.44799 68.74108 6887 ft 300 kts 223°
2026-04-27 17:54 41.43129 68.72506 6557 ft 294 kts 205°
2026-04-27 17:55 41.41214 68.71788 6411 ft 281 kts 184°
2026-04-27 17:55 41.39291 68.72017 6268 ft 278 kts 162°
2026-04-27 17:55 41.37576 68.73147 6117 ft 275 kts 141°
2026-04-27 17:55 41.36271 68.74991 5964 ft 274 kts 126°
2026-04-27 17:56 41.35119 68.77014 5818 ft 275 kts 127°
2026-04-27 17:56 41.33961 68.79039 5671 ft 274 kts 127°
2026-04-27 17:56 41.32823 68.81024 5528 ft 274 kts 127°
2026-04-27 17:56 41.31685 68.83002 5342 ft 263 kts 127°
2026-04-27 17:57 41.30595 68.84891 5175 ft 254 kts 127°
2026-04-27 17:57 41.29524 68.86745 5004 ft 252 kts 127°
2026-04-27 17:57 41.28460 68.88590 4826 ft 248 kts 127°
2026-04-27 17:57 41.27429 68.90376 4663 ft 239 kts 126°
2026-04-27 17:58 41.26434 68.92097 4510 ft 231 kts 127°
2026-04-27 17:58 41.25473 68.93759 4362 ft 229 kts 127°
2026-04-27 17:58 41.24511 68.95424 4218 ft 224 kts 127°
2026-04-27 17:58 41.23584 68.97046 4091 ft 215 kts 123°
2026-04-27 17:59 41.22952 68.98793 3997 ft 208 kts 105°
2026-04-27 17:59 41.22734 69.00665 3996 ft 205 kts 89°
2026-04-27 17:59 41.22824 69.02541 4000 ft 204 kts 83°
2026-04-27 17:59 41.23012 69.04401 3998 ft 200 kts 81°
2026-04-27 18:00 41.23212 69.06201 3998 ft 195 kts 81°
2026-04-27 18:00 41.23411 69.07971 3998 ft 193 kts 81°
2026-04-27 18:00 41.23605 69.09701 3755 ft 190 kts 81°
2026-04-27 18:00 41.23797 69.11415 3513 ft 185 kts 81°
2026-04-27 18:01 41.23984 69.13085 3286 ft 180 kts 81°
2026-04-27 18:01 41.24166 69.14718 3069 ft 175 kts 80°
2026-04-27 18:01 41.24339 69.16266 2827 ft 163 kts 80°
2026-04-27 18:01 41.24496 69.17679 2642 ft 148 kts 80°
2026-04-27 18:02 41.24644 69.19002 2464 ft 142 kts 79°
2026-04-27 18:02 41.24788 69.20283 2262 ft 142 kts 81°
2026-04-27 18:02 41.24930 69.21580 2057 ft 141 kts 81°
2026-04-27 18:02 41.25074 69.22870 1875 ft 142 kts 80°
2026-04-27 18:03 41.25217 69.24166 1682 ft 141 kts 81°
2026-04-27 18:03 41.25358 69.25460 1501 ft 141 kts 81°
2026-04-27 18:03 41.25505 69.26735 1381 ft 131 kts 82°
2026-04-27 18:03 41.25614 69.27728 1380 ft 84 kts 82°
2026-04-27 18:04 41.25669 69.28237 1382 ft 36 kts 82°
2026-04-27 18:04 41.25706 69.28568 1381 ft 36 kts 81°
2026-04-27 18:04 41.25737 69.28836 1377 ft 12 kts 76°
2026-04-27 18:04 41.25807 69.28902 1376 ft 15 kts 22°
2026-04-27 18:05 41.25906 69.28951 1377 ft 16 kts
2026-04-27 18:05 41.26009 69.28894 1378 ft 17 kts 318°
2026-04-27 18:05 41.26100 69.28780 1379 ft 19 kts 317°
2026-04-27 18:05 41.26179 69.28661 1381 ft 16 kts 289°
2026-04-27 18:06 41.26191 69.28467 1381 ft 26 kts 273°
2026-04-27 18:06 41.26178 69.28269 1378 ft 19 kts 261°
2026-04-27 18:06 41.26158 69.28089 1380 ft 21 kts 261°
2026-04-27 18:06 41.26135 69.27892 1379 ft 22 kts 261°
2026-04-27 18:07 41.26110 69.27678 1382 ft 24 kts 261°
2026-04-27 18:07 41.26085 69.27449 1382 ft 26 kts 262°
2026-04-27 18:07 41.26053 69.27243 1378 ft 17 kts 244°
2026-04-27 18:07 41.26012 69.27129 1379 ft 12 kts 245°
2026-04-27 18:08 41.25990 69.27064 1381 ft 6 kts 246°
2026-04-27 18:08 41.26003 69.27023 1379 ft 4 kts 325°
2026-04-27 18:08 41.26026 69.27009 1380 ft 3 kts 336°
2026-04-27 18:08 41.26039 69.27001 1378 ft 1 kts 336°
2026-04-27 18:09 41.26044 69.26998 1378 ft 0 kts 336°